sat.trackr.live / text

‹ back to catalog

KUIPER-00090

NORAD 64835 · 2025-151V

PAYLOAD ACTIVE UNKNOWN

§ Identity

Operator
Country
US
Launch date
2025-07-16
Launch site
AFETR
Launch vehicle
Mass (kg)
RCS (m²)

External: N2YO · Heavens-Above · Gunter

§ Orbital elements

Epoch: 2026-05-24T15:41:55.695840Z

Period
97.30 min
Inclination
51.8990°
Eccentricity
0.0000723
Mean motion
14.79932190 rev/d
Perigee alt
629.0 km
Apogee alt
630.0 km
Semi-major
7,007.7 km
B*
3.0347e-5
RAAN
302.1950°
Arg perigee
130.8329°
Mean anomaly
229.2696°
Rev number
4,686

§ Raw data

KUIPER-000901 64835U 25151V   26144.65411685  .00000010  00000+0  30347-4 0  99942 64835  51.8990 302.1950 0000723 130.8329 229.2696 14.79932190 46863

JSON: /api/v1/satellites/64835 · /tle

For live sub-satellite position, see the globe view (requires WebGL).

§ Visibility from observer

Set your observer location to see the next 7 days of passes ≥ 10°. The values pass through the URL so the page stays shareable.

No JS? Fill the form by hand. The geolocation button needs JavaScript.